This demonstration page uses our WeatherBlox Daily Observations layout. Learn more.

Left ArrowRight Arrow

41.86663, -103.66717

Hourly Observations for January 20, 2017

Temp ( °F °C ) Dew Point ( °F °C ) Humidity (%) Winds ( mph kmh ) Pressure ( in mb ) Visibility ( mi km ) Precip ( " mm )
12:53 am 00:53 Clear 26 -3.3 21 -6.1 81 81 ENE 3 6 29.49 999 10 16 0.00 0.00
1:53 am 01:53 Clear 25 -3.9 20 -6.7 81 81 NNW 5 7 29.48 998 10 16 0.00 0.00
2:53 am 02:53 Clear 28 -2.2 22 -5.6 78 78 NNW 6 9 29.45 997 10 16 0.00 0.00
3:53 am 03:53 Clear 28 -2.2 22 -5.6 78 78 NW 3 6 29.45 997 10 16 0.00 0.00
4:53 am 04:53 Clear 26 -3.3 21 -6.1 81 81 NW 7 11 29.47 998 10 16 0.00 0.00
5:53 am 05:53 Clear 26 -3.3 21 -6.1 81 81 NW 8 13 29.48 998 10 16 0.00 0.00
6:53 am 06:53 Clear 27 -2.8 22 -5.6 81 81 NW 7 11 29.49 999 10 16 0.00 0.00
7:53 am 07:53 Sunny 28 -2.2 23 -5 81 81 NW 9 15 29.50 999 10 16 0.00 0.00
8:53 am 08:53 Sunny 30 -1.1 25 -3.9 82 82 W 5 7 29.49 999 10 16 0.00 0.00
9:53 am 09:53 Sunny 35 1.7 27 -2.8 72 72 W 6 9 29.47 998 10 16 0.00 0.00
10:53 am 10:53 Partly Cloudy 38 3.3 27 -2.8 65 65 WNW 10 17 29.44 997 10 16 0.00 0.00
11:53 am 11:53 Cloudy 41 5 29 -1.7 62 62 W 13 20 29.42 996 10 16 0.00 0.00
12:53 pm 12:53 Mostly Cloudy 42 5.6 30 -1.1 62 62 WNW 18 30 29.39 995 10 16 0.00 0.00
1:10 pm 13:10 Cloudy 43 6 30 -1 61 61 WNW 13 20 29.35 994 10 16 0.00 0.00
1:53 pm 13:53 Cloudy 41 5 32 0 70 70 NW 15 24 29.40 996 10 16 0.00 0.00
2:53 pm 14:53 Cloudy 39 3.9 32 0 76 76 WNW 10 17 29.41 996 10 16 0.00 0.00
3:53 pm 15:53 Cloudy with Light Rain 38 3.3 32 0 79 79 WNW 9 15 29.44 997 10 16 0.00 0.03
4:53 pm 16:53 Cloudy with Light Rain 37 2.8 33 0.6 86 86 WNW 10 17 29.45 997 9 14 0.00 0.03
5:06 pm 17:06 Cloudy with Light Rain 37 3 34 1 87 87 WNW 10 17 29.47 998 10 16 0.00 0.00
5:15 pm 17:15 Cloudy with Light Rain 36 2.2 33 0.6 89 89 WNW 8 13 29.50 999 10 16 0.01 0.25
5:53 pm 17:53 Cloudy with Light Rain 36 2.2 33 0.6 89 89 W 7 11 29.46 998 10 16 0.01 0.25
6:53 pm 18:53 Cloudy 36 2.2 32 0 86 86 WNW 10 17 29.46 998 10 16 0.00 0.03
7:53 pm 19:53 Cloudy 35 1.7 32 0 89 89 NW 7 11 29.45 997 10 16 0.00 0.00
8:53 pm 20:53 Clear 34 1.1 31 -0.6 89 89 WNW 6 9 29.45 997 10 16 0.00 0.00
9:53 pm 21:53 Clear 32 0 29 -1.7 88 88 WNW 6 9 29.44 997 10 16 0.00 0.00
10:53 pm 22:53 Clear 29 -1.7 25 -3.9 85 85 NW 3 6 29.45 997 10 16 0.00 0.00
11:53 pm 23:53 Clear 28 -2.2 23 -5 81 81 N 7 11 29.43 997 10 16 0.00 0.00

Powered by AerisWeather